Location: Newark
(17.9939°S, 31.0481°E)
Time: 10:48:09
(UTC+00:00)

N. Korean satellite - Visible Passes

Search period start: 22 October 2019 00:00
Search period end: 01 November 2019 00:00
Orbit: 455 x 508 km, 97.2° (Epoch: 21 October)

Date Brightness Start Highest point End Pass type
(mag) Time Alt. Az. Time Alt. Az. Time Alt. Az.
22 Oct 9.7 02:41:05 10° NE 02:43:59 22° ESE 02:46:54 10° SSE visible
24 Oct 10.7 16:37:43 10° WSW 16:37:58 10° WSW 16:38:12 10° WSW visible
26 Oct 10.1 02:33:44 10° ENE 02:36:12 17° ESE 02:38:40 10° SSE visible
28 Oct 10.2 16:28:24 10° SW 16:30:06 13° WSW 16:31:49 10° WNW visible
29 Oct 9.0 02:50:15 10° NE 02:53:32 30° ESE 02:56:50 10° SSE visible
30 Oct 10.3 02:26:35 10° ENE 02:28:22 13° ESE 02:30:09 10° SE visible
